"Period start","avg(HW err(1)/warn(2) (#))","avg(Visibility (m))","avg(Weather code (#))","avg(Precip intensity (mm/h))","min(HW err(1)/warn(2) (#))","max(HW err(1)/warn(2) (#))","std(HW err(1)/warn(2) (#))","med(HW err(1)/warn(2) (#))","min(Visibility (m))","max(Visibility (m))","std(Visibility (m))","med(Visibility (m))","min(Weather code (#))","max(Weather code (#))","std(Weather code (#))","med(Weather code (#))","min(Precip intensity (mm/h))","max(Precip intensity (mm/h))","std(Precip intensity (mm/h))","med(Precip intensity (mm/h))"
2014-06-20 00:00:00,2,50000,0,0.00,2,2,0,2,50000,50000,0,50000,0,0,0,0,0.00,0.00,0.00,0.00
2014-06-20 00:10:00,2,50000,0,0.00,2,2,0,2,50000,50000,0,50000,0,0,0,0,0.00,0.00,0.00,0.00
2014-06-20 00:20:00,2,49205,0,0.00,2,2,0,2,45971,50000,1332,50000,0,0,0,0,0.00,0.00,0.00,0.00
2014-06-20 00:30:00,2,49758,0,0.00,2,2,0,2,47575,50000,728,50000,0,0,0,0,0.00,0.00,0.00,0.00
2014-06-20 00:40:00,2,49241,0,0.00,2,2,0,2,43763,50000,1846,50000,0,0,0,0,0.00,0.00,0.00,0.00
2014-06-20 00:50:00,2,49098,0,0.00,2,2,0,2,44321,50000,1803,50000,0,0,0,0,0.00,0.00,0.00,0.00
2014-06-20 01:00:00,2,49825,0,0.00,2,2,0,2,48252,50000,524,50000,0,0,0,0,0.00,0.00,0.00,0.00
2014-06-20 01:10:00,2,48277,0,0.00,2,2,0,2,42423,50000,2981,50000,0,0,0,0,0.00,0.00,0.00,0.00
2014-06-20 01:20:00,2,49799,0,0.00,2,2,0,2,48709,50000,421,50000,0,0,0,0,0.00,0.00,0.00,0.00
2014-06-20 01:30:00,2,46647,0,0.00,2,2,0,2,40668,50000,3004,46631,0,0,0,0,0.00,0.00,0.00,0.00
2014-06-20 01:40:00,2,48860,0,0.00,2,2,0,2,46612,50000,1289,49665,0,0,0,0,0.00,0.00,0.00,0.00
2014-06-20 01:50:00,2,49359,0,0.00,2,2,0,2,43589,50000,1923,50000,0,0,0,0,0.00,0.00,0.00,0.00
2014-06-20 02:00:00,2,47984,0,0.00,2,2,0,2,39567,50000,3206,49689,0,0,0,0,0.00,0.00,0.00,0.00
2014-06-20 02:10:00,2,48068,0,0.00,2,2,0,2,41950,50000,3101,50000,0,0,0,0,0.00,0.00,0.00,0.00
2014-06-20 02:20:00,2,45370,0,0.00,2,2,0,2,37525,50000,4455,46646,0,0,0,0,0.00,0.00,0.00,0.00
2014-06-20 02:30:00,2,42693,0,0.00,2,2,0,2,35668,50000,5555,41132,0,0,0,0,0.00,0.00,0.00,0.00
2014-06-20 02:40:00,2,46510,0,0.00,2,2,0,2,34834,50000,5016,49986,0,0,0,0,0.00,0.00,0.00,0.00
2014-06-20 02:50:00,2,47159,0,0.00,2,2,0,2,42277,50000,3207,49128,0,0,0,0,0.00,0.00,0.00,0.00
2014-06-20 03:00:00,2,49015,0,0.00,2,2,0,2,43625,50000,2046,50000,0,0,0,0,0.00,0.00,0.00,0.00
2014-06-20 03:10:00,2,43816,0,0.00,2,2,0,2,35416,50000,4903,43858,0,0,0,0,0.00,0.00,0.00,0.00
2014-06-20 03:20:00,2,39628,0,0.00,2,2,0,2,30382,50000,7484,39651,0,0,0,0,0.00,0.00,0.00,0.00
2014-06-20 03:30:00,2,45304,0,0.00,2,2,0,2,32302,50000,5653,47790,0,0,0,0,0.00,0.00,0.00,0.00
2014-06-20 03:40:00,2,40611,0,0.00,2,2,0,2,23277,50000,9009,40858,0,0,0,0,0.00,0.00,0.00,0.00
2014-06-20 03:50:00,2,45162,0,0.00,2,2,0,2,39917,50000,4365,44804,0,0,0,0,0.00,0.00,0.00,0.00
2014-06-20 04:00:00,2,47315,0,0.00,2,2,0,2,37453,50000,4357,50000,0,0,0,0,0.00,0.00,0.00,0.00
2014-06-20 04:10:00,2,44298,0,0.00,2,2,0,2,36727,50000,5718,46714,0,0,0,0,0.00,0.00,0.00,0.00
2014-06-20 04:20:00,2,48106,0,0.00,2,2,0,2,40267,50000,3161,50000,0,0,0,0,0.00,0.00,0.00,0.00
2014-06-20 04:30:00,2,46754,0,0.00,2,2,0,2,41905,50000,2355,47554,0,0,0,0,0.00,0.00,0.00,0.00
2014-06-20 04:40:00,2,46091,0,0.00,2,2,0,2,33323,50000,5711,49175,0,0,0,0,0.00,0.00,0.00,0.00
2014-06-20 04:50:00,2,47360,0,0.00,2,2,0,2,42558,50000,2711,48291,0,0,0,0,0.00,0.00,0.00,0.00
2014-06-20 05:00:00,2,48712,0,0.00,2,2,0,2,42464,50000,2622,50000,0,0,0,0,0.00,0.00,0.00,0.00
2014-06-20 05:10:00,2,45240,0,0.00,2,2,0,2,32621,50000,5311,46494,0,0,0,0,0.00,0.00,0.00,0.00
2014-06-20 05:20:00,2,46183,0,0.00,2,2,0,2,40632,50000,3013,45991,0,0,0,0,0.00,0.00,0.00,0.00
2014-06-20 05:30:00,2,47897,0,0.00,2,2,0,2,42620,50000,2370,48652,0,0,0,0,0.00,0.00,0.00,0.00
2014-06-20 05:40:00,2,49511,0,0.00,2,2,0,2,46215,50000,1147,50000,0,0,0,0,0.00,0.00,0.00,0.00
2014-06-20 05:50:00,2,47169,0,0.00,2,2,0,2,40392,50000,2644,47286,0,0,0,0,0.00,0.00,0.00,0.00
2014-06-20 06:00:00,2,46544,0,0.00,2,2,0,2,39302,50000,3797,48535,0,0,0,0,0.00,0.00,0.00,0.00
2014-06-20 06:10:00,2,48803,0,0.00,2,2,0,2,46728,50000,1321,49475,0,0,0,0,0.00,0.00,0.00,0.00
2014-06-20 06:20:00,2,48332,0,0.00,2,2,0,2,43845,50000,2032,49171,0,0,0,0,0.00,0.00,0.00,0.00
2014-06-20 06:30:00,2,46821,0,0.00,2,2,0,2,35686,50000,4218,48353,0,0,0,0,0.00,0.00,0.00,0.00
2014-06-20 06:40:00,2,49535,0,0.00,2,2,0,2,45782,50000,1258,50000,0,0,0,0,0.00,0.00,0.00,0.00
2014-06-20 06:50:00,2,49480,0,0.00,2,2,0,2,47389,50000,1040,50000,0,0,0,0,0.00,0.00,0.00,0.00
2014-06-20 07:00:00,2,47575,0,0.00,2,2,0,2,38148,50000,4412,50000,0,0,0,0,0.00,0.00,0.00,0.00
2014-06-20 07:10:00,2,48175,0,0.00,2,2,0,2,43148,50000,2767,50000,0,0,0,0,0.00,0.00,0.00,0.00
2014-06-20 07:20:00,2,48701,0,0.00,2,2,0,2,45204,50000,1874,50000,0,0,0,0,0.00,0.00,0.00,0.00
2014-06-20 07:30:00,2,49123,0,0.00,2,2,0,2,46598,50000,1140,49786,0,0,0,0,0.00,0.00,0.00,0.00
2014-06-20 07:40:00,2,48783,0,0.00,2,2,0,2,43117,50000,2460,50000,0,0,0,0,0.00,0.00,0.00,0.00
2014-06-20 07:50:00,2,50000,0,0.00,2,2,0,2,50000,50000,0,50000,0,0,0,0,0.00,0.00,0.00,0.00
2014-06-20 08:00:00,2,49847,0,0.00,2,2,0,2,48472,50000,458,50000,0,0,0,0,0.00,0.00,0.00,0.00
2014-06-20 08:10:00,2,45978,0,0.00,2,2,0,2,38718,50000,4246,47302,0,0,0,0,0.00,0.00,0.00,0.00
2014-06-20 08:20:00,2,50000,0,0.00,2,2,0,2,50000,50000,0,50000,0,0,0,0,0.00,0.00,0.00,0.00
2014-06-20 08:30:00,2,45084,0,0.00,2,2,0,2,39311,50000,4038,45816,0,0,0,0,0.00,0.00,0.00,0.00
2014-06-20 08:40:00,2,49081,0,0.00,2,2,0,2,43655,50000,1894,50000,0,0,0,0,0.00,0.00,0.00,0.00
2014-06-20 08:50:00,2,45836,0,0.00,2,2,0,2,40358,50000,2966,46742,0,0,0,0,0.00,0.00,0.00,0.00
2014-06-20 09:00:00,2,49008,0,0.00,2,2,0,2,42850,50000,2213,50000,0,0,0,0,0.00,0.00,0.00,0.00
2014-06-20 09:10:00,2,49107,0,0.00,2,2,0,2,44166,50000,1805,50000,0,0,0,0,0.00,0.00,0.00,0.00
2014-06-20 09:20:00,2,49657,0,0.00,2,2,0,2,48126,50000,574,50000,0,0,0,0,0.00,0.00,0.00,0.00
2014-06-20 09:30:00,2,48239,0,0.00,2,2,0,2,44264,50000,2114,49044,0,0,0,0,0.00,0.00,0.00,0.00
2014-06-20 09:40:00,2,44680,0,0.00,2,2,0,2,26299,50000,7163,47654,0,0,0,0,0.00,0.00,0.00,0.00
2014-06-20 09:50:00,2,48638,0,0.00,2,2,0,2,44134,50000,2030,50000,0,0,0,0,0.00,0.00,0.00,0.00
2014-06-20 10:00:00,2,48284,0,0.00,2,2,0,2,42264,50000,2408,49448,0,0,0,0,0.00,0.00,0.00,0.00
2014-06-20 10:10:00,2,49152,0,0.00,2,2,0,2,46809,50000,1324,50000,0,0,0,0,0.00,0.00,0.00,0.00
2014-06-20 10:20:00,2,47937,0,0.00,2,2,0,2,40217,50000,3288,50000,0,0,0,0,0.00,0.00,0.00,0.00
2014-06-20 10:30:00,2,46126,0,0.00,2,2,0,2,30724,50000,7014,50000,0,0,0,0,0.00,0.00,0.00,0.00
2014-06-20 10:40:00,2,48329,0,0.00,2,2,0,2,44273,50000,2166,49820,0,0,0,0,0.00,0.00,0.00,0.00
2014-06-20 10:50:00,2,44716,0,0.00,2,2,0,2,37011,50000,4396,45176,0,0,0,0,0.00,0.00,0.00,0.00
2014-06-20 11:00:00,2,44619,0,0.00,2,2,0,2,31580,50000,6087,47778,0,0,0,0,0.00,0.00,0.00,0.00
2014-06-20 11:10:00,2,32458,0,0.00,2,2,0,2,24546,49931,6912,32310,0,0,0,0,0.00,0.00,0.00,0.00
2014-06-20 11:20:00,2,34037,0,0.00,2,2,0,2,21880,50000,8964,30786,0,0,0,0,0.00,0.00,0.00,0.00
2014-06-20 11:30:00,2,37022,0,0.00,2,2,0,2,25193,50000,6793,37476,0,0,0,0,0.00,0.00,0.00,0.00
2014-06-20 11:40:00,2,40726,0,0.00,2,2,0,2,34604,50000,5559,38412,0,0,0,0,0.00,0.00,0.00,0.00
2014-06-20 11:50:00,2,40018,0,0.00,2,2,0,2,25647,50000,7742,40965,0,0,0,0,0.00,0.00,0.00,0.00
2014-06-20 12:00:00,2,45168,0,0.00,2,2,0,2,29216,50000,6535,47792,0,0,0,0,0.00,0.00,0.00,0.00
2014-06-20 12:10:00,2,45352,0,0.00,2,2,0,2,38820,50000,4009,45796,0,0,0,0,0.00,0.00,0.00,0.00
2014-06-20 12:20:00,2,46013,0,0.00,2,2,0,2,38916,50000,3538,47030,0,0,0,0,0.00,0.00,0.00,0.00
2014-06-20 12:30:00,2,49786,0,0.00,2,2,0,2,48384,50000,493,50000,0,0,0,0,0.00,0.00,0.00,0.00
2014-06-20 12:40:00,2,48734,0,0.00,2,2,0,2,46485,50000,1304,49246,0,0,0,0,0.00,0.00,0.00,0.00
2014-06-20 12:50:00,2,50000,0,0.00,2,2,0,2,50000,50000,0,50000,0,0,0,0,0.00,0.00,0.00,0.00
2014-06-20 13:00:00,2,49905,0,0.00,2,2,0,2,49050,50000,285,50000,0,0,0,0,0.00,0.00,0.00,0.00
2014-06-20 13:10:00,2,50000,0,0.00,2,2,0,2,50000,50000,0,50000,0,0,0,0,0.00,0.00,0.00,0.00
2014-06-20 13:20:00,2,49789,0,0.00,2,2,0,2,49039,50000,344,50000,0,0,0,0,0.00,0.00,0.00,0.00
2014-06-20 13:30:00,2,50000,0,0.00,2,2,0,2,50000,50000,0,50000,0,0,0,0,0.00,0.00,0.00,0.00
2014-06-20 13:40:00,2,49512,0,0.00,2,2,0,2,45694,50000,1284,50000,0,0,0,0,0.00,0.00,0.00,0.00
2014-06-20 13:50:00,2,49674,0,0.00,2,2,0,2,46736,50000,979,50000,0,0,0,0,0.00,0.00,0.00,0.00
2014-06-20 14:00:00,2,50000,0,0.00,2,2,0,2,50000,50000,0,50000,0,0,0,0,0.00,0.00,0.00,0.00
2014-06-20 14:10:00,2,50000,0,0.00,2,2,0,2,50000,50000,0,50000,0,0,0,0,0.00,0.00,0.00,0.00
2014-06-20 14:20:00,2,49703,0,0.00,2,2,0,2,47964,50000,643,50000,0,0,0,0,0.00,0.00,0.00,0.00
2014-06-20 14:30:00,2,50000,0,0.00,2,2,0,2,50000,50000,0,50000,0,0,0,0,0.00,0.00,0.00,0.00
2014-06-20 14:40:00,2,50000,0,0.00,2,2,0,2,50000,50000,0,50000,0,0,0,0,0.00,0.00,0.00,0.00
2014-06-20 14:50:00,2,50000,0,0.00,2,2,0,2,50000,50000,0,50000,0,0,0,0,0.00,0.00,0.00,0.00
2014-06-20 15:00:00,2,50000,0,0.00,2,2,0,2,50000,50000,0,50000,0,0,0,0,0.00,0.00,0.00,0.00
2014-06-20 15:10:00,2,50000,0,0.00,2,2,0,2,50000,50000,0,50000,0,0,0,0,0.00,0.00,0.00,0.00
2014-06-20 15:20:00,2,50000,0,0.00,2,2,0,2,50000,50000,0,50000,0,0,0,0,0.00,0.00,0.00,0.00
2014-06-20 15:30:00,2,49875,0,0.00,2,2,0,2,48753,50000,374,50000,0,0,0,0,0.00,0.00,0.00,0.00
2014-06-20 15:40:00,2,49873,0,0.00,2,2,0,2,48734,50000,380,50000,0,0,0,0,0.00,0.00,0.00,0.00
2014-06-20 15:50:00,2,50000,0,0.00,2,2,0,2,50000,50000,0,50000,0,0,0,0,0.00,0.00,0.00,0.00
2014-06-20 16:00:00,2,49958,0,0.00,2,2,0,2,49578,50000,127,50000,0,0,0,0,0.00,0.00,0.00,0.00
2014-06-20 16:10:00,2,50000,0,0.00,2,2,0,2,50000,50000,0,50000,0,0,0,0,0.00,0.00,0.00,0.00
2014-06-20 16:20:00,2,50000,0,0.00,2,2,0,2,50000,50000,0,50000,0,0,0,0,0.00,0.00,0.00,0.00
2014-06-20 16:30:00,2,50000,0,0.00,2,2,0,2,50000,50000,0,50000,0,0,0,0,0.00,0.00,0.00,0.00
2014-06-20 16:40:00,2,50000,0,0.00,2,2,0,2,50000,50000,0,50000,0,0,0,0,0.00,0.00,0.00,0.00
2014-06-20 16:50:00,2,50000,0,0.00,2,2,0,2,50000,50000,0,50000,0,0,0,0,0.00,0.00,0.00,0.00
2014-06-20 17:00:00,2,50000,0,0.00,2,2,0,2,50000,50000,0,50000,0,0,0,0,0.00,0.00,0.00,0.00
2014-06-20 17:10:00,2,50000,0,0.00,2,2,0,2,50000,50000,0,50000,0,0,0,0,0.00,0.00,0.00,0.00
2014-06-20 17:20:00,2,50000,0,0.00,2,2,0,2,50000,50000,0,50000,0,0,0,0,0.00,0.00,0.00,0.00
2014-06-20 17:30:00,2,50000,0,0.00,2,2,0,2,50000,50000,0,50000,0,0,0,0,0.00,0.00,0.00,0.00
2014-06-20 17:40:00,2,46574,0,0.00,2,2,0,2,29925,50000,6199,49878,0,0,0,0,0.00,0.00,0.00,0.00
2014-06-20 17:50:00,2,14062,1,0.00,2,2,0,2,2212,39094,10206,12058,0,10,3,0,0.00,0.00,0.00,0.00
2014-06-20 18:00:00,2,3205,10,0.00,2,2,0,2,1152,7484,1717,2706,10,10,0,10,0.00,0.00,0.00,0.00
2014-06-20 18:10:00,2,1804,10,0.00,2,2,0,2,1516,2102,193,1814,10,10,0,10,0.00,0.00,0.00,0.00
2014-06-20 18:20:00,2,11107,10,0.00,2,2,0,2,1679,45631,14026,3359,10,10,0,10,0.00,0.00,0.00,0.00
2014-06-20 18:30:00,2,50000,6,0.00,2,2,0,2,50000,50000,0,50000,0,10,5,10,0.00,0.00,0.00,0.00
2014-06-20 18:40:00,2,50000,0,0.00,2,2,0,2,50000,50000,0,50000,0,0,0,0,0.00,0.00,0.00,0.00
2014-06-20 18:50:00,2,49962,0,0.00,2,2,0,2,49624,50000,113,50000,0,0,0,0,0.00,0.00,0.00,0.00
2014-06-20 19:00:00,2,49983,0,0.00,2,2,0,2,49832,50000,50,50000,0,0,0,0,0.00,0.00,0.00,0.00
2014-06-20 19:10:00,2,50000,0,0.00,2,2,0,2,50000,50000,0,50000,0,0,0,0,0.00,0.00,0.00,0.00
2014-06-20 19:20:00,2,50000,0,0.00,2,2,0,2,50000,50000,0,50000,0,0,0,0,0.00,0.00,0.00,0.00
2014-06-20 19:30:00,2,49708,0,0.00,2,2,0,2,47934,50000,644,50000,0,0,0,0,0.00,0.00,0.00,0.00
2014-06-20 19:40:00,2,30978,0,0.00,2,2,0,2,4213,50000,17240,34856,0,0,0,0,0.00,0.00,0.00,0.00
2014-06-20 19:50:00,2,3519,7,0.00,2,2,0,2,1310,6529,1326,3570,0,10,5,10,0.00,0.00,0.00,0.00
2014-06-20 20:00:00,2,1136,10,0.00,2,2,0,2,877,1625,255,1026,10,10,0,10,0.00,0.00,0.00,0.00
2014-06-20 20:10:00,2,629,28,0.00,2,2,0,2,414,1147,204,600,10,34,9,34,0.00,0.00,0.00,0.00
2014-06-20 20:20:00,2,489,34,0.00,2,2,0,2,403,614,62,484,34,34,0,34,0.00,0.00,0.00,0.00
2014-06-20 20:30:00,2,480,34,0.00,2,2,0,2,384,650,76,468,34,34,0,34,0.00,0.00,0.00,0.00
2014-06-20 20:40:00,2,798,34,0.00,2,2,0,2,466,1331,278,686,34,34,0,34,0.00,0.00,0.00,0.00
2014-06-20 20:50:00,2,2630,28,0.00,2,2,0,2,1587,5414,1093,2336,20,34,7,34,0.00,0.00,0.00,0.00
2014-06-20 21:00:00,2,6504,20,0.00,2,2,0,2,1272,11220,3191,6934,20,20,0,20,0.00,0.00,0.00,0.00
2014-06-20 21:10:00,2,2180,20,0.00,2,2,0,2,1025,4471,1098,1787,20,20,0,20,0.00,0.00,0.00,0.00
2014-06-20 21:20:00,2,4503,20,0.00,2,2,0,2,1714,13737,3381,3020,20,20,0,20,0.00,0.00,0.00,0.00
2014-06-20 21:30:00,2,23799,20,0.00,2,2,0,2,1720,50000,18336,23742,20,20,0,20,0.00,0.00,0.00,0.00
2014-06-20 21:40:00,2,49184,20,0.00,2,2,0,2,46085,50000,1540,50000,20,20,0,20,0.00,0.00,0.00,0.00
2014-06-20 21:50:00,2,48387,10,0.00,2,2,0,2,39738,50000,3101,50000,0,20,10,10,0.00,0.00,0.00,0.00
2014-06-20 22:00:00,2,45371,0,0.00,2,2,0,2,26694,50000,7231,50000,0,0,0,0,0.00,0.00,0.00,0.00
2014-06-20 22:10:00,2,27039,0,0.00,2,2,0,2,9742,50000,15263,22155,0,0,0,0,0.00,0.00,0.00,0.00
2014-06-20 22:20:00,2,42223,0,0.00,2,2,0,2,25779,50000,8970,47308,0,0,0,0,0.00,0.00,0.00,0.00
2014-06-20 22:30:00,2,40766,0,0.00,2,2,0,2,17599,50000,12709,49658,0,0,0,0,0.00,0.00,0.00,0.00
2014-06-20 22:40:00,2,41502,0,0.00,2,2,0,2,7333,50000,15453,49252,0,0,0,0,0.00,0.00,0.00,0.00
2014-06-20 22:50:00,2,4350,6,0.00,2,2,0,2,2233,7295,1494,3714,0,10,5,10,0.00,0.00,0.00,0.00
2014-06-20 23:00:00,2,21674,10,0.00,2,2,0,2,4153,41064,11918,21837,10,10,0,10,0.00,0.00,0.00,0.00
2014-06-20 23:10:00,2,45684,1,0.00,2,2,0,2,33337,50000,6060,50000,0,10,3,0,0.00,0.00,0.00,0.00
2014-06-20 23:20:00,2,46423,0,0.00,2,2,0,2,39198,50000,4011,48648,0,0,0,0,0.00,0.00,0.00,0.00
2014-06-20 23:30:00,2,19231,1,0.00,2,2,0,2,1780,50000,18278,12754,0,10,3,0,0.00,0.00,0.00,0.00
2014-06-20 23:40:00,2,2625,10,0.00,2,2,0,2,1185,7612,1815,2173,10,10,0,10,0.00,0.00,0.00,0.00
2014-06-20 23:50:00,2,5661,10,0.00,2,2,0,2,2978,8837,1837,5252,10,10,0,10,0.00,0.00,0.00,0.00
